Weather History for Buckeye, AZ

Change the Weather History Date:

Thursday, January 16, 2014

  Actual Average (KGYR) Record (KGYR)
Temperature  
Mean Temperature 55 °F -  
Max Temperature 73 °F 66 °F 78 °F (2000)
Min Temperature 37 °F 41 °F 26 °F (2013)
Degree Days  
Heating Degree Days 10    
Growing Degree Days 5 (Base 50)    
Moisture  
Dew Point 24 °F    
Average Humidity 34    
Maximum Humidity 65    
Minimum Humidity 16    
Precipitation  
Precipitation 0.00 in - - ()
Sea Level Pressure  
Sea Level Pressure 30.12 in    
Wind  
Wind Speed 4 mph (NNW)    
Max Wind Speed 14 mph    
Max Gust Speed -    
Visibility 10 miles    
Events      
Averages and records for this station are not official NWS values.
T = Trace of Precipitation, MM = Missing Value Source: NWS Daily Summary

Daily Weather History Graph

Daily Weather History Graph

Search for Another Location

Airport:

Trip Planner

Search our weather history database for the weather conditions in past years. The results will help you decide how hot, cold, wet, or windy it might be!

Date:

Astronomy

Jan. 16, 2014 Rise Set
Actual Time 7:34 AM MST 5:47 PM MST
Civil Twilight 7:07 AM MST 6:13 PM MST
Nautical Twilight 6:37 AM MST 6:44 PM MST
Astronomical Twilight 6:07 AM MST 7:14 PM MST
Moon 6:37 PM MST (1/16) 7:34 AM MST (1/16)
Length of Visible Light 11h 06m
Length of Day
10h 12m
Full, 100% of the Moon is Illuminated
Jan 16
Full
Jan 23
Last Quarter
Jan 30
New
Feb 6
First Quarter
Feb 14
Full

Hourly Weather History & Observations

Time (MST) Temp. Windchill Dew Point Humidity Pressure Visibility Wind Dir Wind Speed Gust Speed Precip Events Conditions
12:15 AM 46.4 °F - 28.4 °F 50% 30.14 in 10.0 mi Calm Calm - N/A   Clear
12:35 AM 46.4 °F 44.3 °F 26.6 °F 46% 30.14 in 10.0 mi SE 4.6 mph - N/A   Clear
12:55 AM 48.2 °F - 26.6 °F 43% 30.13 in 10.0 mi Calm Calm - N/A   Clear
1:15 AM 46.4 °F 43.5 °F 26.6 °F 46% 30.14 in 10.0 mi North 5.8 mph - N/A   Clear
1:35 AM 46.4 °F 45.2 °F 23.0 °F 40% 30.14 in 10.0 mi North 3.5 mph - N/A   Clear
1:55 AM 46.4 °F 45.2 °F 24.8 °F 43% 30.15 in 10.0 mi NNE 3.5 mph - N/A   Clear
2:15 AM 44.6 °F 41.4 °F 24.8 °F 46% 30.14 in 10.0 mi ENE 5.8 mph - N/A   Clear
2:35 AM 44.6 °F 39.7 °F 24.8 °F 46% 30.14 in 10.0 mi NE 9.2 mph - N/A   Clear
2:55 AM 46.4 °F 42.4 °F 24.8 °F 43% 30.14 in 10.0 mi NE 8.1 mph - N/A   Clear
3:15 AM 46.4 °F 41.9 °F 23.0 °F 40% 30.13 in 10.0 mi NNE 9.2 mph - N/A   Clear
3:35 AM 44.6 °F 41.4 °F 24.8 °F 46% 30.13 in 10.0 mi NNE 5.8 mph - N/A   Clear
3:55 AM 42.8 °F 41.1 °F 24.8 °F 49% 30.13 in 10.0 mi NE 3.5 mph - N/A   Clear
4:15 AM 41.0 °F 39.0 °F 24.8 °F 53% 30.13 in 9.0 mi East 3.5 mph - N/A   Clear
4:35 AM 41.0 °F 39.0 °F 24.8 °F 53% 30.13 in 10.0 mi SE 3.5 mph - N/A   Clear
4:55 AM 39.2 °F - 28.4 °F 65% 30.13 in 10.0 mi Calm Calm - N/A   Clear
5:15 AM 39.2 °F - 26.6 °F 61% 30.13 in 10.0 mi Calm Calm - N/A   Clear
5:35 AM 39.2 °F 37.0 °F 26.6 °F 61% 30.13 in 10.0 mi North 3.5 mph - N/A   Clear
5:55 AM 39.2 °F 35.0 °F 26.6 °F 61% 30.13 in 10.0 mi NNW 5.8 mph - N/A   Clear
6:15 AM 41.0 °F 36.4 °F 23.0 °F 49% 30.13 in 10.0 mi North 6.9 mph - N/A   Clear
6:35 AM 41.0 °F 39.0 °F 24.8 °F 53% 30.14 in 10.0 mi East 3.5 mph - N/A   Clear
6:55 AM 39.2 °F 37.0 °F 24.8 °F 56% 30.14 in 10.0 mi SSE 3.5 mph - N/A   Clear
7:15 AM 37.4 °F - 24.8 °F 60% 30.15 in 10.0 mi Calm Calm - N/A   Clear
7:35 AM 37.4 °F - 24.8 °F 60% 30.15 in 10.0 mi Calm Calm - N/A   Clear
7:55 AM 37.4 °F - 24.8 °F 60% 30.17 in 10.0 mi Calm Calm - N/A   Clear
8:15 AM 39.2 °F 37.0 °F 26.6 °F 61% 30.17 in 10.0 mi North 3.5 mph - N/A   Clear
8:35 AM 44.6 °F - 26.6 °F 49% 30.18 in 10.0 mi Calm Calm - N/A   Clear
8:55 AM 46.4 °F - 24.8 °F 43% 30.19 in 10.0 mi Calm Calm - N/A   Clear
9:15 AM 50.0 °F - 23.0 °F 35% 30.19 in 10.0 mi North 3.5 mph - N/A   Clear
9:35 AM 51.8 °F - 23.0 °F 33% 30.19 in 10.0 mi NNE 4.6 mph - N/A   Clear
9:55 AM 55.4 °F - 24.8 °F 31% 30.19 in 10.0 mi Calm Calm - N/A   Clear
10:15 AM 55.4 °F - 24.8 °F 31% 30.19 in 10.0 mi Calm Calm - N/A   Clear
10:35 AM 57.2 °F - 23.0 °F 27% 30.20 in 10.0 mi Calm Calm - N/A   Clear
10:55 AM 59.0 °F - 23.0 °F 25% 30.19 in 10.0 mi NW 5.8 mph - N/A   Clear
11:15 AM 62.6 °F - 24.8 °F 24% 30.18 in 10.0 mi NNW 5.8 mph - N/A   Clear
11:35 AM 64.4 °F - 24.8 °F 22% 30.17 in 10.0 mi NNW 3.5 mph - N/A   Clear
11:55 AM 64.4 °F - 24.8 °F 22% 30.16 in 10.0 mi NW 3.5 mph - N/A   Clear
12:15 PM 66.2 °F - 24.8 °F 21% 30.14 in 10.0 mi WSW 3.5 mph - N/A   Clear
12:35 PM 66.2 °F - 24.8 °F 21% 30.14 in 10.0 mi West 3.5 mph - N/A   Clear
12:55 PM 68.0 °F - 24.8 °F 20% 30.12 in 10.0 mi WSW 3.5 mph - N/A   Clear
1:35 PM 68.0 °F - 24.8 °F 20% 30.09 in 10.0 mi WNW 3.5 mph - N/A   Clear
1:55 PM 69.8 °F - 23.0 °F 17% 30.09 in 10.0 mi WNW 4.6 mph - N/A   Clear
2:15 PM 71.6 °F - 23.0 °F 16% 30.09 in 10.0 mi WNW 5.8 mph - N/A   Clear
2:35 PM 71.6 °F - 23.0 °F 16% 30.08 in 10.0 mi WSW 4.6 mph - N/A   Clear
2:55 PM 73.4 °F - 24.8 °F 16% 30.08 in 10.0 mi WSW 4.6 mph - N/A   Clear
3:15 PM 73.4 °F - 24.8 °F 16% 30.07 in 10.0 mi SW 4.6 mph - N/A   Clear
3:35 PM 73.4 °F - 24.8 °F 16% 30.07 in 10.0 mi SW 3.5 mph - N/A   Clear
3:55 PM 73.4 °F - 24.8 °F 16% 30.06 in 10.0 mi West 4.6 mph - N/A   Clear
4:15 PM 73.4 °F - 26.6 °F 18% 30.06 in 10.0 mi WSW 5.8 mph - N/A   Clear
4:35 PM 73.4 °F - 26.6 °F 18% 30.06 in 10.0 mi West 9.2 mph - N/A   Clear
4:55 PM 73.4 °F - 24.8 °F 16% 30.06 in 10.0 mi West 6.9 mph - N/A   Clear
5:15 PM 71.6 °F - 26.6 °F 19% 30.06 in 10.0 mi West 4.6 mph - N/A   Clear
5:35 PM 68.0 °F - 28.4 °F 23% 30.07 in 10.0 mi West 6.9 mph - N/A   Clear
5:55 PM 66.2 °F - 24.8 °F 21% 30.07 in 10.0 mi West 5.8 mph - N/A   Clear
6:15 PM 64.4 °F - 24.8 °F 22% 30.07 in 10.0 mi West 5.8 mph - N/A   Clear
6:35 PM 62.6 °F - 23.0 °F 22% 30.07 in 10.0 mi WNW 8.1 mph - N/A   Clear
6:55 PM 62.6 °F - 21.2 °F 20% 30.08 in 10.0 mi NW 8.1 mph - N/A   Clear
7:15 PM 59.0 °F - 23.0 °F 25% 30.07 in 10.0 mi North 4.6 mph - N/A   Clear
7:35 PM 57.2 °F - 23.0 °F 27% 30.07 in 10.0 mi North 9.2 mph - N/A   Clear
7:55 PM 57.2 °F - 23.0 °F 27% 30.08 in 10.0 mi North 10.4 mph - N/A   Clear
8:15 PM 57.2 °F - 19.4 °F 23% 30.08 in 10.0 mi North 10.4 mph - N/A   Clear
8:35 PM 59.0 °F - 19.4 °F 22% 30.09 in 10.0 mi NNW 9.2 mph - N/A   Clear
8:55 PM 55.4 °F - 21.2 °F 26% 30.08 in 8.0 mi NW 5.8 mph - N/A   Clear
9:15 PM 50.0 °F - 23.0 °F 35% 30.09 in 7.0 mi NNW 10.4 mph - N/A   Clear
9:35 PM 55.4 °F - 19.4 °F 25% 30.09 in 10.0 mi NNW 13.8 mph - N/A   Clear
9:55 PM 55.4 °F - 19.4 °F 25% 30.09 in 10.0 mi NNW 12.7 mph - N/A   Clear
10:15 PM 57.2 °F - 17.6 °F 21% 30.10 in 10.0 mi NNW 13.8 mph - N/A   Clear
10:35 PM 55.4 °F - 19.4 °F 25% 30.11 in 10.0 mi ENE 6.9 mph - N/A   Clear
10:55 PM 57.2 °F - 15.8 °F 20% 30.11 in 10.0 mi North 8.1 mph - N/A   Clear
11:15 PM 55.4 °F - 17.6 °F 23% 30.10 in 10.0 mi North 8.1 mph - N/A   Clear
11:35 PM 51.8 °F - 17.6 °F 26% 30.10 in 10.0 mi NNW 6.9 mph - N/A   Clear
11:55 PM 48.2 °F - 17.6 °F 30% 30.10 in 10.0 mi NNW 8.1 mph - N/A   Clear